Location: Drocourt
(49.0571°N, 1.7669°E)
Time: 13:56:40
(UTC+00:00)

Vanguard 2 Rocket - Pass Details

Date: 20 April 2024
Orbit: 556 x 3304 km, 32.9° (Epoch: 22 May)

Event Time Altitude Azimuth Distance (km) Brightness Sun altitude
Rises 00:58:08 0° 263° (W) 7,106 11.2 -27.6°
Reaches altitude 10° 01:03:07 10° 258° (WSW) 6,211 10.8 -27.3°
Maximum altitude 01:21:05 43° 196° (SSW) 3,919 9.5 -26.2°
Drops below altitude 10° 01:35:36 10° 133° (SE) 5,069 10.5 -25.1°
Sets 01:39:12 0° 126° (SE) 5,748 10.9 -24.9°
